カタログに戻る

STARLINK-35325

運用中通信VLEO
NORAD 66080·PAYLOAD·🇺🇸 United States

打ち上げ Oct 19, 2025 から Cape Canaveral Space Force Station

Loading…

次のパス (今後24時間)

TLE

最新Source: CelesTrak SupGP

元期: Sep 14, 2026, 14:38 UTC

1 66080C 25235Y   26257.61020833 -.00015442  00000+0 -45591-3 0  2573
2 66080  53.1579  84.8883 0001197  86.3879  12.8747 15.34420277    15

AllMySatでSTARLINK-35325をリアルタイム追跡

Download on the App Store